Regional Weather Roundup
Issued by NWS

Home | Current Version | Previous Version | Text Only | Print | Product List | Glossary On
Versions: 1 2 3 4 5 6 7 8 9 10 11 12 13 14 15 16 17 18 19 20 21 22 23 24 25 26 27 28 29 30 31 32 33 34 35 36 37 38 39 40 41 42 43 44 45 46 47 48 49 50
000
ASUS43 KMPX 051601
RWRMN
WEATHER ROUNDUP FOR MINNESOTA
NATIONAL WEATHER SERVICE TWIN CITIES/CHANHASSEN MN
1100 AM CDT SUN JUL 05 2015


NOTE: "FAIR" INDICATES FEW OR NO CLOUDS BELOW 12,000 FEET WITH NO
SIGNIFICANT WEATHER AND/OR OBSTRUCTIONS TO VISIBILITY. N/A MEANS
CURRENT SKY AND/OR WEATHER CONDITIONS ARE NOT AVAILABLE.

MNZ060>063-068>070-051700-
   Twin Cities Metro

CITY           SKY/WX    TMP DP  RH WIND       PRES   REMARKS
TWIN CITIES    CLOUDY    77  63  61 S13       29.90F
ST PAUL        CLOUDY    76  64  66 S15       29.90F
CRYSTAL        PTSUNNY   79  63  57 S12G24    29.86F
LAKEVILLE      PTSUNNY   73  64  73 S8G16     29.91F
EDEN PRAIRIE   PTSUNNY   76  64  66 S14       29.88F
SOUTH ST PAUL  CLOUDY    76  63  63 S10G17    29.90F
LAKE ELMO      FAIR      73  64  73 S12G17    29.92F
$$
MNZ001>005-007-008-013>017-022>024-027-028-051700-
   Northwest Minnesota

CITY           SKY/WX    TMP DP  RH WIND       PRES   REMARKS
BEMIDJI        PTSUNNY   76  67  72 S12       29.78R
HALLOCK        TSTM      66  66 100 NE7       29.74F
ROSEAU         LGT RAIN  68  63  83 NE5       29.77S
WARROAD        CLOUDY    70  64  83 E3        29.80R
THIEF RVR FALL CLOUDY    72  66  83 E3        29.76F
CROOKSTON      CLOUDY    75  70  83 SW12      29.76R
FOSSTON        MOSUNNY   75  66  73 S18G25    29.78R
DETROIT LAKES  SUNNY     79  64  61 SW15      29.81R
MOORHEAD       MOSUNNY   79  70  73 SW12      29.76S
PARK RAPIDS    MOSUNNY   80  65  59 S14       29.81R
MAHNOMEN       FAIR      78  67  68 SW20G25   29.77S
$$
MNZ006-009>011-018-025>026-051700-
   North Central Minnesota

CITY           SKY/WX    TMP DP  RH WIND       PRES   REMARKS
BAUDETTE       CLOUDY    72  65  78 CALM      29.78S
FLAG ISLAND    CLOUDY    70  64  83 CALM      29.76
INTL FALLS     MOSUNNY   76  67  73 SE5       29.79F
WASKISH        CLOUDY    73  68  83 CALM      29.77R
BIG FORK       PTSUNNY   79  66  65 S9        29.80S
LONGVILLE      MOSUNNY   77  66  69 S9        29.80S
GRAND RAPIDS   PTSUNNY   75  64  69 S12       29.82F
CRANE LAKE     MOSUNNY   75  64  69 S3        29.83F
ORR            MOSUNNY   79  63  57 S3        29.79F
COOK           MOSUNNY   75  64  69 S8G16     29.83F
WALKER         FAIR      76  65  67 S8        29.78S
$$
MNZ012-019>021-037-051700-
   Northeast Minnesota

CITY           SKY/WX    TMP DP  RH WIND       PRES   REMARKS
DULUTH         PTSUNNY   74  63  68 S12       29.88F
ELY            PTSUNNY   75  61  60 S7        29.86S
HIBBING        PTSUNNY   76  65  68 VRB7      29.83F
DULUTH HARBOR  MOSUNNY   64  61  88 NE3       29.88S
SILVER BAY     PTSUNNY   75  63  64 S9        29.87S
GRAND MARAIS     N/A     58  50  75 CALM      29.90S
G MARAIS ARPRT SUNNY     72  61  68 S6        29.93S
$$
MNZ029>031-032-039>041-046>048-054>057-064-051700-
   West Central Minnesota

CITY           SKY/WX    TMP DP  RH WIND       PRES   REMARKS
FERGUS FALLS   SUNNY     79  66  65 S10       29.78R
WHEATON        PTSUNNY   79  66  65 S10       29.78R
MORRIS         MOSUNNY   81  66  61 SE12      29.78R
ALEXANDRIA     SUNNY     79  66  64 S9        29.82F
ELBOW LAKE     FAIR      79  66  65 S12G18    29.79R
WADENA         SUNNY     79  64  61 S10       29.81R
GLENWOOD       MOSUNNY   79  66  65 S10       29.82S
APPLETON       MOSUNNY   82  64  54 S8        29.78R
BENSON         MOSUNNY   79  64  61 S9G20     29.80R
ORTONVILLE     MOSUNNY   84  63  48 S10G20    29.77R
MADISON        MOSUNNY   81  64  57 SE12      29.78R
WILLMAR        FAIR      77  66  69 SE13G20   29.83S
$$
MNZ033>034-036-042>043-049>051-058-059-051700-
   Central Minnesota

CITY           SKY/WX    TMP DP  RH WIND       PRES   REMARKS
ST CLOUD       PTSUNNY   76  64  66 S10       29.83F
SAUK CENTRE    FAIR      75  65  70 S12       29.82F
PAYNESVILLE    MOSUNNY   74  64  71 E10G16    29.83F
AITKIN         MOSUNNY   77  66  69 S9G16     29.81F
PINE RIVER       N/A     77  64  65 S12       29.85R
BRAINERD       MOSUNNY   78  64  61 S15       29.82F
STAPLES        MOSUNNY   77  63  61 S9        29.82S
LONG PRAIRIE   FAIR      75  64  69 SE9       29.83S
LITTLE FALLS   MOSUNNY   77  63  61 SE13      29.82F
LITCHFIELD     PTSUNNY   75  66  73 SE8       29.83F
BUFFALO        PTSUNNY   75  63  64 S12       29.86F
MAPLE LAKE     PTSUNNY   75  66  73 SE8       29.85F
$$
MNZ037-044-045-052-053-051700-
   East Central Minnesota

CITY           SKY/WX    TMP DP  RH WIND       PRES   REMARKS
PRINCETON      PTSUNNY   79  64  61 SE17      29.84F
MORA           PTSUNNY   75  63  64 S13       29.87F
CAMBRIDGE      PTSUNNY   79  63  57 SE10G17   29.84F
RUSH CITY      CLOUDY    75  64  69 S10G17    29.88F
MOOSE LAKE     MOSUNNY   77  63  61 S6        29.84F
HINCKLEY       FAIR      75  64  69 S14       29.87F
CLOQUET        MOSUNNY   75  63  64 S7G16     29.86F
MCGREGOR       MOSUNNY   77  64  65 S14G21    29.83F
$$
MNZ071>073-080-081-089-090-097-098-051700-
   Southwest Minnesota

CITY           SKY/WX    TMP DP  RH WIND       PRES   REMARKS
MONTEVIDEO     MOSUNNY   79  66  65 S13G21    29.81R
GRANITE FALLS  MOSUNNY   78  67  68 SE14      29.82S
CANBY          MOSUNNY   82  64  55 S8G18     29.78S
MARSHALL       MOSUNNY   82  64  54 SW15      29.79F
REDWOOD FALLS  MOSUNNY   79  65  62 S14G23    29.82F
OLIVIA         MOSUNNY   73  63  68 S13       29.82F
PIPESTONE      SUNNY     75  64  69 S17       29.82F
WINDOM         CLOUDY    75  64  69 S10G22    29.84R
WORTHINGTON    CLOUDY    72  63  73 S24G33    29.82F
JACKSON        CLOUDY    73  64  73 S18G25    29.86F
TRACY          PTSUNNY   81  68  65 S13       29.82S
SLAYTON        PTSUNNY   75  66  72 S15G24    29.83R
$$
MNZ065>067-074>077-082>085-091>093-051700-
   South Central Minnesota

CITY           SKY/WX    TMP DP  RH WIND       PRES   REMARKS
MANKATO        PTSUNNY   75  64  69 S18       29.89F
NEW ULM        CLOUDY    75  66  73 S15       29.85F
ST JAMES       CLOUDY    75  66  73 S17       29.86F
FAIRMONT       CLOUDY    73  63  68 S15G23    29.88F
GLENCOE        CLOUDY    77  67  71 SE12      29.85F
FARIBAULT      PTSUNNY   75  66  73 S13       29.93F
OWATONNA       PTSUNNY   79  64  61 S16       29.93F
WASECA         PTSUNNY   77  66  69 S14       29.94F
ALBERT LEA     PTSUNNY   77  64  65 S13G18    29.94F
$$
MNZ078>079-086>088-094>096-051700-
   Southeast Minnesota

CITY           SKY/WX    TMP DP  RH WIND       PRES   REMARKS
ROCHESTER      PTSUNNY   76  65  68 S17       29.99F
RED WING       PTSUNNY   81  63  54 S8        29.93F
DODGE CENTER   PTSUNNY   75  64  69 S16       29.97F
WINONA         MOSUNNY   79  63  57 SW5       29.99S
AUSTIN         MOSUNNY   77  64  65 S14       29.97F
PRESTON        PTSUNNY   75  63  65 SW13      30.01F
$$
ABBREVIATIONS USED IN REMARKS
   TC - TEMPERATURES IN CELSIUS
  WCI - WIND CHILL INDEX
   HX - HEAT INDEX
  VSB - VISIBILITY
$$



USA.gov is the U.S. government's official web portal to all federal, state and local government web resources and services.